Information on these data can be found in provided Readme document
Contact Info: Zachary Fasnacht (zachary.fasnacht@ssaihq.com); Nickolay Krotkov (nickolay.a.krotkov@nasa.gov); Lok Lamsal (lok.lamsal@nasa.gov)

FillValue: -999.
ScaleFactor: 1e15
Units: molecules/cm^2

Date(yyyy-mm-dd),City,Country,LonCenter,LatCenter,BoundingCoordinates,Median,Q1,Q3,Mean,Baseline_Median,Baseline_Q1,Baseline_Q3,Baseline_Mean,NumGoodSamples,NumTotalSamples
2015-01-01,SaoPaulo,Brazil,-46.5167,-23.5167,[-47.0167 -24.0167 -46.0167 -23.0167],2.307,1.338,3.567,2.552,2.447,1.369,3.75,2.609,158.0,553.0
2015-01-02,SaoPaulo,Brazil,-46.5167,-23.5167,[-47.0167 -24.0167 -46.0167 -23.0167],2.342,1.47,3.541,2.582,2.447,1.431,3.695,2.625,189.0,534.0
2015-01-03,SaoPaulo,Brazil,-46.5167,-23.5167,[-47.0167 -24.0167 -46.0167 -23.0167],2.406,1.499,3.547,2.654,2.451,1.441,3.624,2.614,164.0,550.0
2015-01-04,SaoPaulo,Brazil,-46.5167,-23.5167,[-47.0167 -24.0167 -46.0167 -23.0167],2.307,1.444,3.497,2.462,2.301,1.39,3.666,2.533,155.0,540.0
2015-01-05,SaoPaulo,Brazil,-46.5167,-23.5167,[-47.0167 -24.0167 -46.0167 -23.0167],2.307,1.47,3.497,2.492,2.326,1.435,3.74,2.564,170.0,554.0
2015-01-06,SaoPaulo,Brazil,-46.5167,-23.5167,[-47.0167 -24.0167 -46.0167 -23.0167],2.361,1.637,3.53,2.63,2.347,1.495,3.558,2.59,174.0,549.0
2015-01-07,SaoPaulo,Brazil,-46.5167,-23.5167,[-47.0167 -24.0167 -46.0167 -23.0167],2.504,1.681,3.547,2.744,2.359,1.544,3.524,2.623,182.0,538.0
2015-01-08,SaoPaulo,Brazil,-46.5167,-23.5167,[-47.0167 -24.0167 -46.0167 -23.0167],2.409,1.726,3.53,2.721,2.323,1.512,3.405,2.551,180.0,555.0
2015-01-09,SaoPaulo,Brazil,-46.5167,-23.5167,[-47.0167 -24.0167 -46.0167 -23.0167],2.409,1.726,3.53,2.721,2.306,1.514,3.447,2.566,180.0,506.0
2015-01-10,SaoPaulo,Brazil,-46.5167,-23.5167,[-47.0167 -24.0167 -46.0167 -23.0167],2.557,1.726,3.578,2.807,2.325,1.404,3.491,2.58,163.0,514.0
2015-01-11,SaoPaulo,Brazil,-46.5167,-23.5167,[-47.0167 -24.0167 -46.0167 -23.0167],2.502,1.724,3.53,2.675,2.327,1.452,3.53,2.552,180.0,508.0
2015-01-12,SaoPaulo,Brazil,-46.5167,-23.5167,[-47.0167 -24.0167 -46.0167 -23.0167],2.504,1.724,3.542,2.749,2.372,1.504,3.525,2.621,213.0,530.0
2015-01-13,SaoPaulo,Brazil,-46.5167,-23.5167,[-47.0167 -24.0167 -46.0167 -23.0167],2.502,1.669,3.53,2.713,2.357,1.437,3.553,2.593,223.0,516.0
2015-01-14,SaoPaulo,Brazil,-46.5167,-23.5167,[-47.0167 -24.0167 -46.0167 -23.0167],2.502,1.669,3.53,2.706,2.235,1.324,3.271,2.451,220.0,522.0
2015-01-15,SaoPaulo,Brazil,-46.5167,-23.5167,[-47.0167 -24.0167 -46.0167 -23.0167],2.449,1.718,3.53,2.664,2.226,1.349,3.263,2.426,208.0,529.0
2015-01-16,SaoPaulo,Brazil,-46.5167,-23.5167,[-47.0167 -24.0167 -46.0167 -23.0167],2.449,1.724,3.497,2.66,2.225,1.341,3.238,2.426,210.0,508.0
2015-01-17,SaoPaulo,Brazil,-46.5167,-23.5167,[-47.0167 -24.0167 -46.0167 -23.0167],2.383,1.39,3.481,2.66,2.121,1.199,3.18,2.415,179.0,520.0
2015-01-18,SaoPaulo,Brazil,-46.5167,-23.5167,[-47.0167 -24.0167 -46.0167 -23.0167],2.295,1.724,3.354,2.635,2.069,1.307,3.249,2.426,207.0,504.0
2015-01-19,SaoPaulo,Brazil,-46.5167,-23.5167,[-47.0167 -24.0167 -46.0167 -23.0167],2.494,1.779,3.448,2.739,2.104,1.301,3.264,2.411,188.0,522.0
2015-01-20,SaoPaulo,Brazil,-46.5167,-23.5167,[-47.0167 -24.0167 -46.0167 -23.0167],2.475,1.73,3.329,2.699,2.083,1.271,3.184,2.383,169.0,512.0
2015-01-21,SaoPaulo,Brazil,-46.5167,-23.5167,[-47.0167 -24.0167 -46.0167 -23.0167],2.396,1.61,3.301,2.564,2.049,1.164,3.204,2.337,176.0,529.0
2015-01-22,SaoPaulo,Brazil,-46.5167,-23.5167,[-47.0167 -24.0167 -46.0167 -23.0167],2.206,1.402,3.032,2.395,2.048,1.062,3.197,2.33,154.0,525.0
2015-01-23,SaoPaulo,Brazil,-46.5167,-23.5167,[-47.0167 -24.0167 -46.0167 -23.0167],2.206,1.402,3.004,2.396,2.164,1.064,3.236,2.425,139.0,518.0
2015-01-24,SaoPaulo,Brazil,-46.5167,-23.5167,[-47.0167 -24.0167 -46.0167 -23.0167],2.206,1.402,3.004,2.394,2.153,1.102,3.283,2.46,140.0,557.0
2015-01-25,SaoPaulo,Brazil,-46.5167,-23.5167,[-47.0167 -24.0167 -46.0167 -23.0167],2.206,1.402,3.004,2.394,2.172,1.134,3.324,2.486,140.0,529.0
2015-01-26,SaoPaulo,Brazil,-46.5167,-23.5167,[-47.0167 -24.0167 -46.0167 -23.0167],2.206,1.547,3.065,2.451,2.217,1.126,3.406,2.541,116.0,538.0
2015-01-27,SaoPaulo,Brazil,-46.5167,-23.5167,[-47.0167 -24.0167 -46.0167 -23.0167],2.315,1.768,3.224,2.488,2.28,1.219,3.469,2.579,107.0,530.0
2015-01-28,SaoPaulo,Brazil,-46.5167,-23.5167,[-47.0167 -24.0167 -46.0167 -23.0167],2.283,1.768,3.184,2.514,2.281,1.238,3.524,2.603,92.0,551.0
2015-01-29,SaoPaulo,Brazil,-46.5167,-23.5167,[-47.0167 -24.0167 -46.0167 -23.0167],2.283,1.768,3.224,2.515,2.435,1.318,3.712,2.755,91.0,539.0
2015-01-30,SaoPaulo,Brazil,-46.5167,-23.5167,[-47.0167 -24.0167 -46.0167 -23.0167],2.283,1.859,3.224,2.529,2.365,1.366,3.676,2.692,92.0,543.0
2015-01-31,SaoPaulo,Brazil,-46.5167,-23.5167,[-47.0167 -24.0167 -46.0167 -23.0167],2.315,1.804,3.224,2.542,2.36,1.382,3.654,2.707,103.0,552.0
2015-02-01,SaoPaulo,Brazil,-46.5167,-23.5167,[-47.0167 -24.0167 -46.0167 -23.0167],2.429,1.768,3.184,2.528,2.405,1.396,3.512,2.657,113.0,530.0
2015-02-02,SaoPaulo,Brazil,-46.5167,-23.5167,[-47.0167 -24.0167 -46.0167 -23.0167],2.499,1.61,3.388,2.51,2.391,1.346,3.608,2.64,85.0,541.0
2015-02-03,SaoPaulo,Brazil,-46.5167,-23.5167,[-47.0167 -24.0167 -46.0167 -23.0167],2.499,1.61,3.388,2.538,2.365,1.308,3.584,2.612,87.0,524.0
2015-02-04,SaoPaulo,Brazil,-46.5167,-23.5167,[-47.0167 -24.0167 -46.0167 -23.0167],2.52,1.768,3.516,2.657,2.341,1.258,3.546,2.596,80.0,541.0
2015-02-05,SaoPaulo,Brazil,-46.5167,-23.5167,[-47.0167 -24.0167 -46.0167 -23.0167],2.429,1.717,3.516,2.609,2.354,1.292,3.574,2.61,89.0,530.0
2015-02-06,SaoPaulo,Brazil,-46.5167,-23.5167,[-47.0167 -24.0167 -46.0167 -23.0167],2.52,1.804,3.516,2.688,2.311,1.218,3.587,2.586,86.0,547.0
2015-02-07,SaoPaulo,Brazil,-46.5167,-23.5167,[-47.0167 -24.0167 -46.0167 -23.0167],2.499,1.717,3.516,2.602,2.295,1.152,3.546,2.535,89.0,543.0
2015-02-08,SaoPaulo,Brazil,-46.5167,-23.5167,[-47.0167 -24.0167 -46.0167 -23.0167],2.499,1.768,3.516,2.607,2.308,1.291,3.464,2.529,89.0,532.0
2015-02-09,SaoPaulo,Brazil,-46.5167,-23.5167,[-47.0167 -24.0167 -46.0167 -23.0167],2.499,1.768,3.516,2.607,2.259,1.338,3.365,2.497,89.0,551.0
2015-02-10,SaoPaulo,Brazil,-46.5167,-23.5167,[-47.0167 -24.0167 -46.0167 -23.0167],2.499,1.768,3.516,2.607,2.303,1.367,3.26,2.458,89.0,501.0
2015-02-11,SaoPaulo,Brazil,-46.5167,-23.5167,[-47.0167 -24.0167 -46.0167 -23.0167],2.255,1.371,3.096,2.34,2.245,1.258,3.29,2.436,65.0,513.0
2015-02-12,SaoPaulo,Brazil,-46.5167,-23.5167,[-47.0167 -24.0167 -46.0167 -23.0167],2.295,1.435,3.096,2.409,2.248,1.256,3.337,2.483,72.0,506.0
2015-02-13,SaoPaulo,Brazil,-46.5167,-23.5167,[-47.0167 -24.0167 -46.0167 -23.0167],2.295,1.435,3.096,2.412,2.264,1.326,3.333,2.499,73.0,527.0
2015-02-14,SaoPaulo,Brazil,-46.5167,-23.5167,[-47.0167 -24.0167 -46.0167 -23.0167],2.295,1.562,3.096,2.466,2.309,1.346,3.472,2.531,75.0,515.0
2015-02-15,SaoPaulo,Brazil,-46.5167,-23.5167,[-47.0167 -24.0167 -46.0167 -23.0167],2.255,1.371,3.096,2.328,2.3,1.312,3.46,2.472,92.0,521.0
2015-02-16,SaoPaulo,Brazil,-46.5167,-23.5167,[-47.0167 -24.0167 -46.0167 -23.0167],2.255,1.371,3.212,2.384,2.32,1.272,3.447,2.446,103.0,529.0
2015-02-17,SaoPaulo,Brazil,-46.5167,-23.5167,[-47.0167 -24.0167 -46.0167 -23.0167],2.255,1.371,3.273,2.415,2.344,1.357,3.437,2.479,110.0,508.0
2015-02-18,SaoPaulo,Brazil,-46.5167,-23.5167,[-47.0167 -24.0167 -46.0167 -23.0167],2.255,1.371,3.212,2.39,2.381,1.314,3.446,2.492,108.0,521.0
2015-02-19,SaoPaulo,Brazil,-46.5167,-23.5167,[-47.0167 -24.0167 -46.0167 -23.0167],2.295,1.562,3.273,2.542,2.43,1.38,3.438,2.55,134.0,505.0
2015-02-20,SaoPaulo,Brazil,-46.5167,-23.5167,[-47.0167 -24.0167 -46.0167 -23.0167],2.407,1.673,3.277,2.6,2.453,1.403,3.451,2.538,107.0,524.0
2015-02-21,SaoPaulo,Brazil,-46.5167,-23.5167,[-47.0167 -24.0167 -46.0167 -23.0167],2.407,1.673,3.277,2.597,2.462,1.478,3.492,2.594,105.0,512.0
2015-02-22,SaoPaulo,Brazil,-46.5167,-23.5167,[-47.0167 -24.0167 -46.0167 -23.0167],2.407,1.717,3.433,2.631,2.463,1.506,3.533,2.602,125.0,528.0
2015-02-23,SaoPaulo,Brazil,-46.5167,-23.5167,[-47.0167 -24.0167 -46.0167 -23.0167],2.407,1.673,3.562,2.655,2.484,1.403,3.607,2.616,137.0,526.0
2015-02-24,SaoPaulo,Brazil,-46.5167,-23.5167,[-47.0167 -24.0167 -46.0167 -23.0167],2.683,1.719,3.86,2.941,2.547,1.432,3.749,2.7,160.0,516.0
2015-02-25,SaoPaulo,Brazil,-46.5167,-23.5167,[-47.0167 -24.0167 -46.0167 -23.0167],2.765,1.719,3.879,3.031,2.603,1.383,3.758,2.731,172.0,556.0
2015-02-26,SaoPaulo,Brazil,-46.5167,-23.5167,[-47.0167 -24.0167 -46.0167 -23.0167],2.755,1.719,3.922,3.027,2.621,1.383,3.779,2.712,182.0,526.0
2015-02-27,SaoPaulo,Brazil,-46.5167,-23.5167,[-47.0167 -24.0167 -46.0167 -23.0167],2.676,1.719,4.101,3.046,2.56,1.321,3.709,2.661,175.0,535.0
2015-02-28,SaoPaulo,Brazil,-46.5167,-23.5167,[-47.0167 -24.0167 -46.0167 -23.0167],2.676,1.719,4.101,3.047,2.573,1.228,3.803,2.65,174.0,528.0
2015-03-01,SaoPaulo,Brazil,-46.5167,-23.5167,[-47.0167 -24.0167 -46.0167 -23.0167],2.755,1.715,4.124,3.072,2.607,1.231,3.832,2.676,165.0,551.0
2015-03-02,SaoPaulo,Brazil,-46.5167,-23.5167,[-47.0167 -24.0167 -46.0167 -23.0167],2.827,1.719,4.285,3.237,2.339,1.117,3.727,2.616,135.0,538.0
2015-03-03,SaoPaulo,Brazil,-46.5167,-23.5167,[-47.0167 -24.0167 -46.0167 -23.0167],3.024,1.719,4.818,3.317,2.398,1.133,3.909,2.643,117.0,546.0
2015-03-04,SaoPaulo,Brazil,-46.5167,-23.5167,[-47.0167 -24.0167 -46.0167 -23.0167],3.024,1.719,4.818,3.295,2.371,1.069,3.874,2.619,123.0,557.0
2015-03-05,SaoPaulo,Brazil,-46.5167,-23.5167,[-47.0167 -24.0167 -46.0167 -23.0167],3.024,1.719,4.818,3.295,2.388,1.105,3.967,2.676,123.0,535.0
2015-03-06,SaoPaulo,Brazil,-46.5167,-23.5167,[-47.0167 -24.0167 -46.0167 -23.0167],3.19,1.545,5.631,3.513,2.369,1.1,3.959,2.679,97.0,548.0
2015-03-07,SaoPaulo,Brazil,-46.5167,-23.5167,[-47.0167 -24.0167 -46.0167 -23.0167],3.19,1.545,5.631,3.513,2.442,1.148,4.105,2.757,97.0,530.0
2015-03-08,SaoPaulo,Brazil,-46.5167,-23.5167,[-47.0167 -24.0167 -46.0167 -23.0167],3.19,1.545,5.631,3.513,2.376,1.195,4.006,2.673,97.0,548.0
2015-03-09,SaoPaulo,Brazil,-46.5167,-23.5167,[-47.0167 -24.0167 -46.0167 -23.0167],3.265,1.715,6.244,3.743,2.345,1.154,4.083,2.753,75.0,537.0
2015-03-10,SaoPaulo,Brazil,-46.5167,-23.5167,[-47.0167 -24.0167 -46.0167 -23.0167],3.19,1.715,5.631,3.917,2.321,1.132,3.871,2.676,63.0,554.0
2015-03-11,SaoPaulo,Brazil,-46.5167,-23.5167,[-47.0167 -24.0167 -46.0167 -23.0167],2.622,1.261,5.631,3.337,2.209,1.065,3.731,2.536,40.0,551.0
2015-03-12,SaoPaulo,Brazil,-46.5167,-23.5167,[-47.0167 -24.0167 -46.0167 -23.0167],2.622,0.628,4.958,2.937,2.239,0.991,3.606,2.485,30.0,541.0
2015-03-13,SaoPaulo,Brazil,-46.5167,-23.5167,[-47.0167 -24.0167 -46.0167 -23.0167],2.44,0.352,4.429,2.86,2.17,0.992,3.584,2.458,20.0,560.0
2015-03-14,SaoPaulo,Brazil,-46.5167,-23.5167,[-47.0167 -24.0167 -46.0167 -23.0167],2.44,0.352,4.429,2.86,2.088,0.995,3.588,2.431,20.0,511.0
2015-03-15,SaoPaulo,Brazil,-46.5167,-23.5167,[-47.0167 -24.0167 -46.0167 -23.0167],2.44,0.352,4.429,2.86,2.207,1.117,3.677,2.576,20.0,522.0
2015-03-16,SaoPaulo,Brazil,-46.5167,-23.5167,[-47.0167 -24.0167 -46.0167 -23.0167],2.44,0.352,4.429,2.86,2.197,1.106,3.773,2.641,20.0,514.0
2015-03-17,SaoPaulo,Brazil,-46.5167,-23.5167,[-47.0167 -24.0167 -46.0167 -23.0167],3.286,0.982,6.693,3.868,2.364,1.206,3.998,2.797,50.0,535.0
2015-03-18,SaoPaulo,Brazil,-46.5167,-23.5167,[-47.0167 -24.0167 -46.0167 -23.0167],3.286,0.982,5.904,3.793,2.381,1.265,3.956,2.827,58.0,520.0
2015-03-19,SaoPaulo,Brazil,-46.5167,-23.5167,[-47.0167 -24.0167 -46.0167 -23.0167],4.25,1.287,5.948,4.439,2.478,1.325,3.969,2.921,75.0,525.0
2015-03-20,SaoPaulo,Brazil,-46.5167,-23.5167,[-47.0167 -24.0167 -46.0167 -23.0167],4.251,1.544,6.351,4.774,2.506,1.266,4.094,2.981,101.0,533.0
2015-03-21,SaoPaulo,Brazil,-46.5167,-23.5167,[-47.0167 -24.0167 -46.0167 -23.0167],4.181,1.215,6.334,4.591,2.439,1.164,4.106,2.909,106.0,512.0
2015-03-22,SaoPaulo,Brazil,-46.5167,-23.5167,[-47.0167 -24.0167 -46.0167 -23.0167],4.181,1.215,6.334,4.591,2.433,1.183,4.083,2.922,106.0,524.0
2015-03-23,SaoPaulo,Brazil,-46.5167,-23.5167,[-47.0167 -24.0167 -46.0167 -23.0167],4.181,1.215,6.334,4.591,2.515,1.193,4.164,2.961,106.0,509.0
2015-03-24,SaoPaulo,Brazil,-46.5167,-23.5167,[-47.0167 -24.0167 -46.0167 -23.0167],4.181,1.502,6.343,4.602,2.505,1.227,4.278,2.981,105.0,527.0
2015-03-25,SaoPaulo,Brazil,-46.5167,-23.5167,[-47.0167 -24.0167 -46.0167 -23.0167],3.558,1.462,5.591,4.165,2.434,1.176,4.212,2.942,120.0,516.0
2015-03-26,SaoPaulo,Brazil,-46.5167,-23.5167,[-47.0167 -24.0167 -46.0167 -23.0167],3.857,1.462,6.343,4.471,2.638,1.195,4.443,3.092,151.0,530.0
2015-03-27,SaoPaulo,Brazil,-46.5167,-23.5167,[-47.0167 -24.0167 -46.0167 -23.0167],3.677,1.462,6.343,4.409,2.659,1.236,4.751,3.195,152.0,528.0
2015-03-28,SaoPaulo,Brazil,-46.5167,-23.5167,[-47.0167 -24.0167 -46.0167 -23.0167],3.677,1.591,6.334,4.367,2.729,1.379,4.929,3.279,175.0,518.0
2015-03-29,SaoPaulo,Brazil,-46.5167,-23.5167,[-47.0167 -24.0167 -46.0167 -23.0167],3.677,1.544,6.065,4.348,2.803,1.386,4.888,3.384,177.0,557.0
2015-03-30,SaoPaulo,Brazil,-46.5167,-23.5167,[-47.0167 -24.0167 -46.0167 -23.0167],3.151,1.201,5.904,4.172,2.71,1.278,4.895,3.345,182.0,529.0
2015-03-31,SaoPaulo,Brazil,-46.5167,-23.5167,[-47.0167 -24.0167 -46.0167 -23.0167],3.151,1.201,5.904,4.172,2.733,1.254,4.973,3.407,182.0,538.0
2015-04-01,SaoPaulo,Brazil,-46.5167,-23.5167,[-47.0167 -24.0167 -46.0167 -23.0167],2.722,1.077,4.969,3.765,2.769,1.281,5.004,3.401,165.0,530.0
2015-04-02,SaoPaulo,Brazil,-46.5167,-23.5167,[-47.0167 -24.0167 -46.0167 -23.0167],2.798,1.077,5.279,4.021,2.719,1.246,5.031,3.441,184.0,553.0
2015-04-03,SaoPaulo,Brazil,-46.5167,-23.5167,[-47.0167 -24.0167 -46.0167 -23.0167],2.825,1.077,5.656,4.073,2.8,1.276,5.131,3.507,164.0,538.0
2015-04-04,SaoPaulo,Brazil,-46.5167,-23.5167,[-47.0167 -24.0167 -46.0167 -23.0167],2.814,1.153,5.656,3.984,2.907,1.372,5.187,3.54,165.0,543.0
2015-04-05,SaoPaulo,Brazil,-46.5167,-23.5167,[-47.0167 -24.0167 -46.0167 -23.0167],2.916,1.228,5.605,3.929,2.994,1.434,5.247,3.621,181.0,549.0
2015-04-06,SaoPaulo,Brazil,-46.5167,-23.5167,[-47.0167 -24.0167 -46.0167 -23.0167],2.916,1.315,5.656,3.937,2.975,1.4,5.262,3.614,188.0,531.0
2015-04-07,SaoPaulo,Brazil,-46.5167,-23.5167,[-47.0167 -24.0167 -46.0167 -23.0167],2.916,1.315,5.656,3.937,3.044,1.35,5.34,3.662,188.0,541.0
2015-04-08,SaoPaulo,Brazil,-46.5167,-23.5167,[-47.0167 -24.0167 -46.0167 -23.0167],2.939,1.462,5.67,4.008,3.017,1.348,5.318,3.628,191.0,524.0
2015-04-09,SaoPaulo,Brazil,-46.5167,-23.5167,[-47.0167 -24.0167 -46.0167 -23.0167],3.013,1.524,6.065,4.211,3.068,1.384,5.375,3.706,175.0,544.0
2015-04-10,SaoPaulo,Brazil,-46.5167,-23.5167,[-47.0167 -24.0167 -46.0167 -23.0167],2.814,1.077,5.656,3.758,2.998,1.316,5.365,3.687,162.0,536.0
2015-04-11,SaoPaulo,Brazil,-46.5167,-23.5167,[-47.0167 -24.0167 -46.0167 -23.0167],2.835,1.077,5.67,3.789,2.998,1.337,4.985,3.621,179.0,550.0
2015-04-12,SaoPaulo,Brazil,-46.5167,-23.5167,[-47.0167 -24.0167 -46.0167 -23.0167],2.835,1.077,5.67,3.743,2.992,1.424,5.016,3.738,156.0,547.0
2015-04-13,SaoPaulo,Brazil,-46.5167,-23.5167,[-47.0167 -24.0167 -46.0167 -23.0167],2.857,1.077,5.759,3.889,3.017,1.438,5.208,3.796,178.0,538.0
2015-04-14,SaoPaulo,Brazil,-46.5167,-23.5167,[-47.0167 -24.0167 -46.0167 -23.0167],2.96,1.181,6.001,4.029,3.028,1.48,5.058,3.815,175.0,555.0
2015-04-15,SaoPaulo,Brazil,-46.5167,-23.5167,[-47.0167 -24.0167 -46.0167 -23.0167],2.96,1.181,6.001,4.029,2.911,1.442,5.316,3.711,175.0,506.0
2015-04-16,SaoPaulo,Brazil,-46.5167,-23.5167,[-47.0167 -24.0167 -46.0167 -23.0167],3.273,1.524,6.272,4.374,2.972,1.524,5.338,3.752,162.0,516.0
2015-04-17,SaoPaulo,Brazil,-46.5167,-23.5167,[-47.0167 -24.0167 -46.0167 -23.0167],3.013,1.807,5.656,3.858,3.052,1.661,5.395,3.779,146.0,509.0
2015-04-18,SaoPaulo,Brazil,-46.5167,-23.5167,[-47.0167 -24.0167 -46.0167 -23.0167],2.953,1.676,5.127,3.665,3.023,1.587,5.077,3.671,156.0,532.0
2015-04-19,SaoPaulo,Brazil,-46.5167,-23.5167,[-47.0167 -24.0167 -46.0167 -23.0167],2.835,1.196,4.564,3.229,3.025,1.487,5.147,3.703,142.0,522.0
2015-04-20,SaoPaulo,Brazil,-46.5167,-23.5167,[-47.0167 -24.0167 -46.0167 -23.0167],2.953,1.43,5.624,3.828,3.087,1.547,5.427,3.835,150.0,528.0
2015-04-21,SaoPaulo,Brazil,-46.5167,-23.5167,[-47.0167 -24.0167 -46.0167 -23.0167],2.953,1.196,5.127,3.713,3.092,1.552,5.372,3.834,156.0,535.0
2015-04-22,SaoPaulo,Brazil,-46.5167,-23.5167,[-47.0167 -24.0167 -46.0167 -23.0167],2.953,1.43,5.304,3.799,3.11,1.6,5.402,3.9,164.0,512.0
2015-04-23,SaoPaulo,Brazil,-46.5167,-23.5167,[-47.0167 -24.0167 -46.0167 -23.0167],2.863,1.196,5.051,3.707,3.181,1.678,5.408,4.026,161.0,524.0
2015-04-24,SaoPaulo,Brazil,-46.5167,-23.5167,[-47.0167 -24.0167 -46.0167 -23.0167],2.587,1.196,4.564,3.415,3.221,1.714,5.381,4.087,175.0,504.0
2015-04-25,SaoPaulo,Brazil,-46.5167,-23.5167,[-47.0167 -24.0167 -46.0167 -23.0167],2.663,1.348,4.564,3.541,3.091,1.631,5.246,4.047,157.0,520.0
2015-04-26,SaoPaulo,Brazil,-46.5167,-23.5167,[-47.0167 -24.0167 -46.0167 -23.0167],2.587,1.348,4.564,3.48,3.17,1.694,5.509,4.265,145.0,510.0
2015-04-27,SaoPaulo,Brazil,-46.5167,-23.5167,[-47.0167 -24.0167 -46.0167 -23.0167],2.587,1.348,4.564,3.48,3.495,1.65,6.047,4.557,145.0,523.0
2015-04-28,SaoPaulo,Brazil,-46.5167,-23.5167,[-47.0167 -24.0167 -46.0167 -23.0167],2.586,1.348,3.996,3.342,3.456,1.673,6.184,4.529,124.0,521.0
2015-04-29,SaoPaulo,Brazil,-46.5167,-23.5167,[-47.0167 -24.0167 -46.0167 -23.0167],2.586,1.348,3.984,3.345,3.519,1.697,6.116,4.541,122.0,511.0
2015-04-30,SaoPaulo,Brazil,-46.5167,-23.5167,[-47.0167 -24.0167 -46.0167 -23.0167],2.587,1.348,4.323,3.4,3.621,1.885,6.339,4.725,132.0,550.0
2015-05-01,SaoPaulo,Brazil,-46.5167,-23.5167,[-47.0167 -24.0167 -46.0167 -23.0167],2.559,1.291,4.171,3.261,3.617,1.762,6.338,4.661,135.0,522.0
2015-05-02,SaoPaulo,Brazil,-46.5167,-23.5167,[-47.0167 -24.0167 -46.0167 -23.0167],2.543,0.907,5.049,3.4,3.861,1.943,6.597,4.844,121.0,531.0
2015-05-03,SaoPaulo,Brazil,-46.5167,-23.5167,[-47.0167 -24.0167 -46.0167 -23.0167],2.543,0.977,4.743,3.389,4.053,2.038,6.782,5.066,101.0,525.0
2015-05-04,SaoPaulo,Brazil,-46.5167,-23.5167,[-47.0167 -24.0167 -46.0167 -23.0167],2.586,1.291,5.241,3.714,3.96,2.089,6.844,5.019,88.0,544.0
2015-05-05,SaoPaulo,Brazil,-46.5167,-23.5167,[-47.0167 -24.0167 -46.0167 -23.0167],2.41,1.291,3.491,2.826,3.939,2.086,6.672,4.915,67.0,536.0
2015-05-06,SaoPaulo,Brazil,-46.5167,-23.5167,[-47.0167 -24.0167 -46.0167 -23.0167],2.334,1.291,3.491,2.891,3.903,2.092,6.792,4.961,54.0,535.0
2015-05-07,SaoPaulo,Brazil,-46.5167,-23.5167,[-47.0167 -24.0167 -46.0167 -23.0167],2.197,1.277,2.883,2.397,3.853,2.049,6.759,4.859,52.0,549.0
2015-05-08,SaoPaulo,Brazil,-46.5167,-23.5167,[-47.0167 -24.0167 -46.0167 -23.0167],2.197,0.977,3.491,2.548,3.897,1.892,6.733,4.833,62.0,525.0
2015-05-09,SaoPaulo,Brazil,-46.5167,-23.5167,[-47.0167 -24.0167 -46.0167 -23.0167],2.543,0.977,5.165,2.93,3.893,1.888,6.825,4.806,48.0,539.0
2015-05-10,SaoPaulo,Brazil,-46.5167,-23.5167,[-47.0167 -24.0167 -46.0167 -23.0167],2.543,0.977,5.165,2.93,4.001,1.939,6.903,4.924,48.0,523.0
2015-05-11,SaoPaulo,Brazil,-46.5167,-23.5167,[-47.0167 -24.0167 -46.0167 -23.0167],2.41,0.27,5.165,2.964,3.881,1.801,6.606,4.678,40.0,543.0
2015-05-12,SaoPaulo,Brazil,-46.5167,-23.5167,[-47.0167 -24.0167 -46.0167 -23.0167],2.41,0.27,5.165,2.964,3.568,1.62,6.107,4.235,40.0,535.0
2015-05-13,SaoPaulo,Brazil,-46.5167,-23.5167,[-47.0167 -24.0167 -46.0167 -23.0167],3.066,0.977,7.077,4.578,3.622,1.661,6.46,4.379,59.0,547.0
2015-05-14,SaoPaulo,Brazil,-46.5167,-23.5167,[-47.0167 -24.0167 -46.0167 -23.0167],3.531,1.403,8.332,5.197,3.828,1.989,6.549,4.636,64.0,544.0
2015-05-15,SaoPaulo,Brazil,-46.5167,-23.5167,[-47.0167 -24.0167 -46.0167 -23.0167],4.508,2.053,9.603,6.242,3.872,1.99,6.851,4.974,81.0,534.0
2015-05-16,SaoPaulo,Brazil,-46.5167,-23.5167,[-47.0167 -24.0167 -46.0167 -23.0167],4.962,2.636,10.069,6.937,4.083,2.144,6.913,5.236,87.0,551.0
2015-05-17,SaoPaulo,Brazil,-46.5167,-23.5167,[-47.0167 -24.0167 -46.0167 -23.0167],4.962,2.636,10.069,6.937,3.758,1.947,6.791,5.083,87.0,502.0
2015-05-18,SaoPaulo,Brazil,-46.5167,-23.5167,[-47.0167 -24.0167 -46.0167 -23.0167],4.962,2.636,10.069,6.937,3.741,1.877,6.596,5.043,87.0,510.0
2015-05-19,SaoPaulo,Brazil,-46.5167,-23.5167,[-47.0167 -24.0167 -46.0167 -23.0167],4.988,2.882,9.709,6.735,3.892,1.838,6.57,5.05,95.0,503.0
2015-05-20,SaoPaulo,Brazil,-46.5167,-23.5167,[-47.0167 -24.0167 -46.0167 -23.0167],4.988,2.605,9.978,6.647,3.767,1.724,6.451,4.876,119.0,521.0
2015-05-21,SaoPaulo,Brazil,-46.5167,-23.5167,[-47.0167 -24.0167 -46.0167 -23.0167],4.988,2.605,9.978,6.647,3.794,1.686,6.258,4.702,119.0,515.0
2015-05-22,SaoPaulo,Brazil,-46.5167,-23.5167,[-47.0167 -24.0167 -46.0167 -23.0167],5.349,2.938,10.388,7.382,3.786,1.716,6.328,4.792,134.0,517.0
2015-05-23,SaoPaulo,Brazil,-46.5167,-23.5167,[-47.0167 -24.0167 -46.0167 -23.0167],6.007,2.775,10.729,7.46,3.803,1.661,6.197,4.683,135.0,530.0
2015-05-24,SaoPaulo,Brazil,-46.5167,-23.5167,[-47.0167 -24.0167 -46.0167 -23.0167],6.007,2.775,10.729,7.46,3.807,1.735,5.98,4.655,135.0,505.0
2015-05-25,SaoPaulo,Brazil,-46.5167,-23.5167,[-47.0167 -24.0167 -46.0167 -23.0167],6.007,2.775,10.729,7.46,3.88,1.792,6.075,4.735,135.0,517.0
2015-05-26,SaoPaulo,Brazil,-46.5167,-23.5167,[-47.0167 -24.0167 -46.0167 -23.0167],6.007,2.775,10.729,7.46,3.99,1.798,6.546,5.028,135.0,499.0
2015-05-27,SaoPaulo,Brazil,-46.5167,-23.5167,[-47.0167 -24.0167 -46.0167 -23.0167],6.007,2.775,10.729,7.46,3.977,1.828,6.566,5.054,135.0,518.0
2015-05-28,SaoPaulo,Brazil,-46.5167,-23.5167,[-47.0167 -24.0167 -46.0167 -23.0167],3.971,1.93,7.823,5.624,3.759,1.729,6.544,4.871,143.0,510.0
2015-05-29,SaoPaulo,Brazil,-46.5167,-23.5167,[-47.0167 -24.0167 -46.0167 -23.0167],3.971,1.93,7.795,5.567,3.499,1.61,6.13,4.751,166.0,526.0
2015-05-30,SaoPaulo,Brazil,-46.5167,-23.5167,[-47.0167 -24.0167 -46.0167 -23.0167],3.478,1.628,6.853,4.908,3.341,1.411,5.757,4.274,148.0,524.0
2015-05-31,SaoPaulo,Brazil,-46.5167,-23.5167,[-47.0167 -24.0167 -46.0167 -23.0167],3.096,1.607,6.681,4.643,3.359,1.571,5.853,4.235,166.0,517.0
2015-06-01,SaoPaulo,Brazil,-46.5167,-23.5167,[-47.0167 -24.0167 -46.0167 -23.0167],3.285,1.607,6.853,4.868,3.446,1.761,5.884,4.481,189.0,556.0
2015-06-02,SaoPaulo,Brazil,-46.5167,-23.5167,[-47.0167 -24.0167 -46.0167 -23.0167],4.075,1.848,7.923,5.402,3.626,1.806,6.226,4.569,208.0,528.0
2015-06-03,SaoPaulo,Brazil,-46.5167,-23.5167,[-47.0167 -24.0167 -46.0167 -23.0167],4.063,1.823,7.935,5.429,3.736,1.805,6.247,4.694,200.0,538.0
2015-06-04,SaoPaulo,Brazil,-46.5167,-23.5167,[-47.0167 -24.0167 -46.0167 -23.0167],4.087,2.274,6.93,5.096,3.928,2.07,6.454,4.988,202.0,531.0
2015-06-05,SaoPaulo,Brazil,-46.5167,-23.5167,[-47.0167 -24.0167 -46.0167 -23.0167],4.087,2.274,6.93,5.093,4.015,2.179,6.86,5.212,204.0,551.0
2015-06-06,SaoPaulo,Brazil,-46.5167,-23.5167,[-47.0167 -24.0167 -46.0167 -23.0167],4.024,1.936,6.608,4.649,4.139,2.245,6.365,5.04,205.0,540.0
2015-06-07,SaoPaulo,Brazil,-46.5167,-23.5167,[-47.0167 -24.0167 -46.0167 -23.0167],3.972,2.062,6.283,4.66,4.167,2.389,6.254,5.086,223.0,542.0
2015-06-08,SaoPaulo,Brazil,-46.5167,-23.5167,[-47.0167 -24.0167 -46.0167 -23.0167],3.972,2.062,6.283,4.66,4.161,2.312,6.3,5.064,223.0,555.0
2015-06-09,SaoPaulo,Brazil,-46.5167,-23.5167,[-47.0167 -24.0167 -46.0167 -23.0167],3.892,2.009,6.224,4.621,4.443,2.481,6.624,5.286,226.0,531.0
2015-06-10,SaoPaulo,Brazil,-46.5167,-23.5167,[-47.0167 -24.0167 -46.0167 -23.0167],3.892,2.009,6.224,4.621,4.52,2.544,7.074,5.408,226.0,541.0
2015-06-11,SaoPaulo,Brazil,-46.5167,-23.5167,[-47.0167 -24.0167 -46.0167 -23.0167],3.873,2.023,6.079,4.516,4.531,2.493,7.029,5.385,244.0,523.0
2015-06-12,SaoPaulo,Brazil,-46.5167,-23.5167,[-47.0167 -24.0167 -46.0167 -23.0167],4.126,2.187,6.737,4.802,4.745,2.584,7.927,5.919,214.0,540.0
2015-06-13,SaoPaulo,Brazil,-46.5167,-23.5167,[-47.0167 -24.0167 -46.0167 -23.0167],4.126,2.187,6.519,4.602,4.77,2.596,7.877,5.943,198.0,529.0
2015-06-14,SaoPaulo,Brazil,-46.5167,-23.5167,[-47.0167 -24.0167 -46.0167 -23.0167],4.141,2.187,6.373,4.592,4.694,2.581,7.851,5.942,221.0,544.0